User: anonymous
Location: Fort Wayne
(41.1310°N, 85.1290°W)
Time: 20:38:08
(UTC-04:00)
Language:

COSMOS 2406 - Orbit

View from above orbital plane
View from above orbital plane
View from above satellite
View from above satellite

Ground track
Ground track

The orbit data is extracted from the following two-line orbital elements,

1 28352U 04021A   14205.11162282  .00000289  00000-0  18593-3 0  3488
2 28352 071.0034 175.4988 0017097 264.5233 168.0518 14.11347972521419
Epoch (UTC): 24 July 2014 02:40:44
Eccentricity: 0.0017097
inclination: 71.0034°
perigee height: 842 km
apogee height: 867 km
right ascension of ascending node: 175.4988°
argument of perigee: 264.5233°
revolutions per day: 14.11347972
mean anomaly at epoch: 168.0518°
orbit number at epoch: 52141

The dashed part of the orbit path shows where the satellite is in the earth's shadow,  

DLR